Time,TemperatureF,DewpointF,PressureIn,WindDirection,WindDirectionDegrees,WindSpeedMPH,WindSpeedGustMPH,Humidity,HourlyPrecipIn,Conditions,Clouds,dailyrainin,SoftwareType,DateUTC
2013-06-13 00:05:00,76.3,69.3,29.93,South,176,1.0,1.0,79,0.00,,,0.00,Wunderground v.1.15,2013-06-13 05:05:00,
2013-06-13 00:10:00,76.1,69.5,29.93,South,176,0.0,5.0,80,0.00,,,0.00,Wunderground v.1.15,2013-06-13 05:10:00,
2013-06-13 00:20:00,76.0,69.4,29.94,South,176,1.0,1.0,80,0.00,,,0.00,Wunderground v.1.15,2013-06-13 05:20:00,
2013-06-13 00:25:00,76.0,69.4,29.94,South,176,1.0,1.0,80,0.00,,,0.00,Wunderground v.1.15,2013-06-13 05:25:00,
2013-06-13 00:35:00,75.8,69.6,29.94,South,176,2.0,2.0,81,0.00,,,0.00,Wunderground v.1.15,2013-06-13 05:35:00,
2013-06-13 00:40:00,75.6,69.4,29.94,South,179,3.0,3.0,81,0.00,,,0.00,Wunderground v.1.15,2013-06-13 05:40:00,
2013-06-13 00:50:00,75.4,69.5,29.94,South,176,2.0,2.0,82,0.00,,,0.00,Wunderground v.1.15,2013-06-13 05:50:00,
2013-06-13 00:55:00,75.3,69.4,29.94,South,176,1.0,2.0,82,0.00,,,0.00,Wunderground v.1.15,2013-06-13 05:55:00,
2013-06-13 01:05:00,75.1,69.6,29.93,South,176,1.0,5.0,83,0.00,,,0.00,Wunderground v.1.15,2013-06-13 06:05:00,
2013-06-13 01:10:00,75.1,69.6,29.94,South,176,1.0,2.0,83,0.00,,,0.00,Wunderground v.1.15,2013-06-13 06:10:00,
2013-06-13 01:20:00,74.9,69.7,29.94,South,176,1.0,1.0,84,0.00,,,0.00,Wunderground v.1.15,2013-06-13 06:20:00,
2013-06-13 01:25:00,74.9,70.1,29.94,South,176,2.0,5.0,85,0.00,,,0.00,Wunderground v.1.15,2013-06-13 06:25:00,
2013-06-13 01:35:00,74.7,70.2,29.94,South,176,3.0,6.0,86,0.00,,,0.00,Wunderground v.1.15,2013-06-13 06:35:00,
2013-06-13 01:40:00,74.7,70.2,29.94,South,176,2.0,2.0,86,0.00,,,0.00,Wunderground v.1.15,2013-06-13 06:40:00,
2013-06-13 01:50:00,74.7,70.6,29.94,South,176,2.0,4.0,87,0.00,,,0.00,Wunderground v.1.15,2013-06-13 06:50:00,
2013-06-13 01:55:00,74.7,70.6,29.94,South,178,1.0,4.0,87,0.00,,,0.00,Wunderground v.1.15,2013-06-13 06:55:00,
2013-06-13 02:05:00,74.6,70.8,29.94,South,176,1.0,2.0,88,0.00,,,0.00,Wunderground v.1.15,2013-06-13 07:05:00,
2013-06-13 02:10:00,74.6,70.8,29.94,South,176,2.0,2.0,88,0.00,,,0.00,Wunderground v.1.15,2013-06-13 07:10:00,
2013-06-13 02:20:00,74.4,70.6,29.94,South,176,1.0,2.0,88,0.00,,,0.00,Wunderground v.1.15,2013-06-13 07:20:00,
2013-06-13 02:25:00,74.4,70.9,29.94,South,176,2.0,2.0,89,0.00,,,0.00,Wunderground v.1.15,2013-06-13 07:25:00,
2013-06-13 02:35:00,74.2,70.7,29.94,South,176,1.0,2.0,89,0.00,,,0.00,Wunderground v.1.15,2013-06-13 07:35:00,
2013-06-13 02:40:00,74.2,70.7,29.94,South,175,0.0,5.0,89,0.00,,,0.00,Wunderground v.1.15,2013-06-13 07:40:00,
2013-06-13 02:50:00,74.2,70.7,29.94,South,176,3.0,6.0,89,0.00,,,0.00,Wunderground v.1.15,2013-06-13 07:50:00,
2013-06-13 02:55:00,74.4,70.9,29.94,South,169,3.0,6.0,89,0.00,,,0.00,Wunderground v.1.15,2013-06-13 07:55:00,
2013-06-13 03:05:00,74.4,70.6,29.94,South,172,2.0,8.0,88,0.00,,,0.00,Wunderground v.1.15,2013-06-13 08:05:00,
2013-06-13 03:10:00,74.4,70.6,29.94,South,181,3.0,3.0,88,0.00,,,0.00,Wunderground v.1.15,2013-06-13 08:10:00,
2013-06-13 03:20:00,74.4,70.6,29.94,South,181,3.0,3.0,88,0.00,,,0.00,Wunderground v.1.15,2013-06-13 08:20:00,
2013-06-13 03:25:00,74.6,70.8,29.94,South,179,3.0,5.0,88,0.00,,,0.00,Wunderground v.1.15,2013-06-13 08:25:00,
2013-06-13 03:35:00,74.4,70.6,29.94,South,181,2.0,6.0,88,0.00,,,0.00,Wunderground v.1.15,2013-06-13 08:35:00,
2013-06-13 03:40:00,74.6,70.8,29.94,South,181,3.0,3.0,88,0.00,,,0.00,Wunderground v.1.15,2013-06-13 08:40:00,
2013-06-13 03:50:00,74.6,70.8,29.93,South,181,2.0,2.0,88,0.00,,,0.00,Wunderground v.1.15,2013-06-13 08:50:00,
2013-06-13 03:55:00,74.6,70.8,29.93,South,182,2.0,5.0,88,0.00,,,0.00,Wunderground v.1.15,2013-06-13 08:55:00,
2013-06-13 04:05:00,74.6,71.1,29.94,South,182,2.0,5.0,89,0.00,,,0.00,Wunderground v.1.15,2013-06-13 09:05:00,
2013-06-13 04:10:00,74.6,71.1,29.94,South,182,2.0,2.0,89,0.00,,,0.00,Wunderground v.1.15,2013-06-13 09:10:00,
2013-06-13 04:20:00,74.6,71.1,29.94,South,182,2.0,3.0,89,0.00,,,0.00,Wunderground v.1.15,2013-06-13 09:20:00,
2013-06-13 04:25:00,74.6,71.1,29.93,South,182,2.0,3.0,89,0.00,,,0.00,Wunderground v.1.15,2013-06-13 09:25:00,
2013-06-13 04:35:00,74.6,71.1,29.94,South,182,1.0,2.0,89,0.00,,,0.00,Wunderground v.1.15,2013-06-13 09:35:00,
2013-06-13 04:40:00,74.6,71.1,29.94,South,182,1.0,1.0,89,0.00,,,0.00,Wunderground v.1.15,2013-06-13 09:40:00,
2013-06-13 04:50:00,74.6,71.1,29.94,South,182,0.0,0.0,89,0.00,,,0.00,Wunderground v.1.15,2013-06-13 09:50:00,
2013-06-13 04:55:00,74.6,71.1,29.94,South,182,0.0,1.0,89,0.00,,,0.00,Wunderground v.1.15,2013-06-13 09:55:00,
2013-06-13 05:05:00,74.6,71.5,29.94,South,182,2.0,2.0,90,0.00,,,0.00,Wunderground v.1.15,2013-06-13 10:05:00,
2013-06-13 05:10:00,74.6,71.5,29.94,South,182,1.0,2.0,90,0.00,,,0.00,Wunderground v.1.15,2013-06-13 10:10:00,
2013-06-13 05:20:00,74.4,71.3,29.94,South,182,2.0,2.0,90,0.00,,,0.00,Wunderground v.1.15,2013-06-13 10:20:00,
2013-06-13 05:25:00,74.4,71.3,29.94,South,182,1.0,2.0,90,0.00,,,0.00,Wunderground v.1.15,2013-06-13 10:25:00,
2013-06-13 05:35:00,74.2,71.1,29.94,South,182,1.0,1.0,90,0.00,,,0.00,Wunderground v.1.15,2013-06-13 10:35:00,
2013-06-13 05:40:00,74.2,71.1,29.94,South,182,1.0,1.0,90,0.00,,,0.00,Wunderground v.1.15,2013-06-13 10:40:00,
2013-06-13 05:50:00,74.0,70.9,29.95,South,184,0.0,0.0,90,0.00,,,0.00,Wunderground v.1.15,2013-06-13 10:50:00,
2013-06-13 05:55:00,74.0,70.9,29.95,South,182,1.0,1.0,90,0.00,,,0.00,Wunderground v.1.15,2013-06-13 10:55:00,
2013-06-13 06:05:00,73.9,70.8,29.96,South,182,0.0,2.0,90,0.00,,,0.00,Wunderground v.1.15,2013-06-13 11:05:00,
2013-06-13 06:10:00,73.9,71.1,29.96,South,182,0.0,0.0,91,0.00,,,0.00,Wunderground v.1.15,2013-06-13 11:10:00,
2013-06-13 06:20:00,73.9,71.1,29.96,South,182,0.0,0.0,91,0.00,,,0.00,Wunderground v.1.15,2013-06-13 11:20:00,
2013-06-13 06:25:00,73.9,71.1,29.96,South,182,0.0,0.0,91,0.00,,,0.00,Wunderground v.1.15,2013-06-13 11:25:00,
2013-06-13 06:35:00,73.9,71.1,29.96,South,184,0.0,0.0,91,0.00,,,0.00,Wunderground v.1.15,2013-06-13 11:35:00,
2013-06-13 06:40:00,73.7,70.9,29.96,South,182,0.0,0.0,91,0.00,,,0.00,Wunderground v.1.15,2013-06-13 11:40:00,
2013-06-13 06:50:00,73.7,70.9,29.97,South,182,0.0,0.0,91,0.00,,,0.00,Wunderground v.1.15,2013-06-13 11:50:00,
2013-06-13 06:55:00,73.7,70.9,29.97,South,182,0.0,0.0,91,0.00,,,0.00,Wunderground v.1.15,2013-06-13 11:55:00,
2013-06-13 07:05:00,73.7,71.2,29.97,South,184,0.0,0.0,92,0.00,,,0.00,Wunderground v.1.15,2013-06-13 12:05:00,
2013-06-13 07:10:00,73.9,71.4,29.97,South,182,0.0,0.0,92,0.00,,,0.00,Wunderground v.1.15,2013-06-13 12:10:00,
2013-06-13 07:20:00,74.0,71.2,29.98,South,182,0.0,0.0,91,0.00,,,0.00,Wunderground v.1.15,2013-06-13 12:20:00,
2013-06-13 07:25:00,74.2,71.4,29.98,South,182,0.0,0.0,91,0.00,,,0.00,Wunderground v.1.15,2013-06-13 12:25:00,
2013-06-13 07:35:00,74.4,71.6,29.98,South,182,0.0,0.0,91,0.00,,,0.00,Wunderground v.1.15,2013-06-13 12:35:00,
2013-06-13 07:40:00,74.4,71.6,29.98,South,184,0.0,0.0,91,0.00,,,0.00,Wunderground v.1.15,2013-06-13 12:40:00,
2013-06-13 07:50:00,74.9,71.8,29.98,South,179,0.0,0.0,90,0.00,,,0.00,Wunderground v.1.15,2013-06-13 12:50:00,
2013-06-13 07:55:00,75.1,72.0,29.98,South,179,1.0,1.0,90,0.00,,,0.00,Wunderground v.1.15,2013-06-13 12:55:00,
2013-06-13 08:05:00,75.6,71.8,29.99,ESE,120,0.0,1.0,88,0.00,,,0.00,Wunderground v.1.15,2013-06-13 13:05:00,
2013-06-13 08:10:00,75.8,72.0,29.99,ESE,120,0.0,0.0,88,0.00,,,0.00,Wunderground v.1.15,2013-06-13 13:10:00,
2013-06-13 08:20:00,76.3,72.1,29.99,ESE,120,0.0,4.0,87,0.00,,,0.00,Wunderground v.1.15,2013-06-13 13:20:00,
2013-06-13 08:25:00,76.5,72.0,29.99,ESE,120,1.0,4.0,86,0.00,,,0.00,Wunderground v.1.15,2013-06-13 13:25:00,
2013-06-13 08:35:00,77.0,71.8,30.00,ESE,121,1.0,1.0,84,0.00,,,0.00,Wunderground v.1.15,2013-06-13 13:35:00,
2013-06-13 08:40:00,77.4,72.5,29.99,ESE,121,1.0,1.0,85,0.00,,,0.00,Wunderground v.1.15,2013-06-13 13:40:00,
2013-06-13 08:50:00,77.9,71.6,30.00,ESE,123,2.0,2.0,81,0.00,,,0.00,Wunderground v.1.15,2013-06-13 13:50:00,
2013-06-13 08:55:00,78.1,71.4,30.00,ESE,123,1.0,2.0,80,0.00,,,0.00,Wunderground v.1.15,2013-06-13 13:55:00,
2013-06-13 09:05:00,77.9,71.6,30.00,ESE,123,0.0,0.0,81,0.00,,,0.00,Wunderground v.1.15,2013-06-13 14:05:00,
2013-06-13 09:10:00,78.1,71.8,30.00,ESE,123,0.0,0.0,81,0.00,,,0.00,Wunderground v.1.15,2013-06-13 14:10:00,
2013-06-13 09:20:00,78.6,71.9,30.00,SE,130,2.0,8.0,80,0.00,,,0.00,Wunderground v.1.15,2013-06-13 14:20:00,
2013-06-13 09:25:00,79.6,71.8,30.00,SE,131,2.0,8.0,77,0.00,,,0.00,Wunderground v.1.15,2013-06-13 14:25:00,
2013-06-13 09:35:00,81.4,70.7,30.00,SE,136,2.0,3.0,70,0.00,,,0.00,Wunderground v.1.15,2013-06-13 14:35:00,
2013-06-13 09:40:00,82.2,71.0,30.00,SE,143,3.0,3.0,69,0.00,,,0.00,Wunderground v.1.15,2013-06-13 14:40:00,
2013-06-13 09:50:00,83.4,71.7,30.00,SE,144,2.0,5.0,68,0.00,,,0.00,Wunderground v.1.15,2013-06-13 14:50:00,
2013-06-13 09:55:00,83.6,71.5,30.00,SE,144,1.0,5.0,67,0.00,,,0.00,Wunderground v.1.15,2013-06-13 14:55:00,
2013-06-13 10:05:00,84.0,71.4,30.00,SSE,151,3.0,7.0,66,0.00,,,0.00,Wunderground v.1.15,2013-06-13 15:05:00,
2013-06-13 10:10:00,84.3,71.7,30.00,SSE,151,3.0,3.0,66,0.00,,,0.00,Wunderground v.1.15,2013-06-13 15:10:00,
2013-06-13 10:20:00,85.1,71.1,30.00,SSE,151,3.0,3.0,63,0.00,,,0.00,Wunderground v.1.15,2013-06-13 15:20:00,
2013-06-13 10:25:00,85.3,71.3,30.00,SSE,151,3.0,3.0,63,0.00,,,0.00,Wunderground v.1.15,2013-06-13 15:25:00,
2013-06-13 10:35:00,85.9,70.9,30.00,SSE,152,2.0,2.0,61,0.00,,,0.00,Wunderground v.1.15,2013-06-13 15:35:00,
2013-06-13 10:40:00,86.1,70.1,30.00,SSE,152,2.0,2.0,59,0.00,,,0.00,Wunderground v.1.15,2013-06-13 15:40:00,
2013-06-13 10:50:00,87.0,71.9,29.99,SSE,160,3.0,3.0,61,0.00,,,0.00,Wunderground v.1.15,2013-06-13 15:50:00,
2013-06-13 10:55:00,87.2,70.6,30.00,South,175,3.0,3.0,58,0.00,,,0.00,Wunderground v.1.15,2013-06-13 15:55:00,
2013-06-13 11:05:00,87.4,70.8,30.00,South,175,2.0,3.0,58,0.00,,,0.00,Wunderground v.1.15,2013-06-13 16:05:00,
2013-06-13 11:10:00,87.8,70.7,29.99,South,175,1.0,6.0,57,0.00,,,0.00,Wunderground v.1.15,2013-06-13 16:10:00,
2013-06-13 11:20:00,88.2,71.0,29.99,South,175,1.0,1.0,57,0.00,,,0.00,Wunderground v.1.15,2013-06-13 16:20:00,
2013-06-13 11:25:00,88.8,71.1,29.99,South,175,1.0,2.0,56,0.00,,,0.00,Wunderground v.1.15,2013-06-13 16:25:00,
2013-06-13 11:35:00,89.5,71.7,29.99,South,175,1.0,2.0,56,0.00,,,0.00,Wunderground v.1.15,2013-06-13 16:35:00,
2013-06-13 11:40:00,89.5,71.7,29.99,South,175,1.0,1.0,56,0.00,,,0.00,Wunderground v.1.15,2013-06-13 16:40:00,
2013-06-13 11:50:00,89.0,71.3,29.99,South,175,1.0,1.0,56,0.00,,,0.00,Wunderground v.1.15,2013-06-13 16:50:00,
2013-06-13 11:55:00,89.3,71.5,29.99,South,175,1.0,1.0,56,0.00,,,0.00,Wunderground v.1.15,2013-06-13 16:55:00,
2013-06-13 12:05:00,89.7,70.3,29.98,South,176,2.0,7.0,53,0.00,,,0.00,Wunderground v.1.15,2013-06-13 17:05:00,
2013-06-13 12:10:00,89.9,70.5,29.98,South,176,3.0,3.0,53,0.00,,,0.00,Wunderground v.1.15,2013-06-13 17:10:00,
2013-06-13 12:20:00,90.7,70.1,29.98,South,176,1.0,5.0,51,0.00,,,0.00,Wunderground v.1.15,2013-06-13 17:20:00,
2013-06-13 12:25:00,90.7,70.1,29.97,SSE,151,2.0,5.0,51,0.00,,,0.00,Wunderground v.1.15,2013-06-13 17:25:00,
2013-06-13 12:35:00,91.4,70.1,29.97,SSE,154,2.0,6.0,50,0.00,,,0.00,Wunderground v.1.15,2013-06-13 17:35:00,
2013-06-13 12:40:00,92.1,70.2,29.96,SSE,154,1.0,1.0,49,0.00,,,0.00,Wunderground v.1.15,2013-06-13 17:40:00,
2013-06-13 12:50:00,92.3,70.4,29.96,SSE,154,1.0,1.0,49,0.00,,,0.00,Wunderground v.1.15,2013-06-13 17:50:00,
2013-06-13 12:55:00,92.3,71.6,29.96,SSE,154,0.0,1.0,51,0.00,,,0.00,Wunderground v.1.15,2013-06-13 17:55:00,
2013-06-13 13:05:00,92.3,69.8,29.96,SSE,148,1.0,1.0,48,0.00,,,0.00,Wunderground v.1.15,2013-06-13 18:05:00,
2013-06-13 13:10:00,92.9,69.1,29.95,SSE,148,1.0,1.0,46,0.00,,,0.00,Wunderground v.1.15,2013-06-13 18:10:00,
2013-06-13 13:20:00,93.4,69.5,29.94,SSE,150,2.0,2.0,46,0.00,,,0.00,Wunderground v.1.15,2013-06-13 18:20:00,
2013-06-13 13:25:00,93.8,70.5,29.94,SSE,150,1.0,2.0,47,0.00,,,0.00,Wunderground v.1.15,2013-06-13 18:25:00,
2013-06-13 13:35:00,94.5,69.2,29.94,SSE,147,1.0,1.0,44,0.00,,,0.00,Wunderground v.1.15,2013-06-13 18:35:00,
2013-06-13 13:40:00,94.5,69.2,29.94,SSE,147,1.0,1.0,44,0.00,,,0.00,Wunderground v.1.15,2013-06-13 18:40:00,
2013-06-13 13:50:00,93.4,69.5,29.93,SSE,150,0.0,0.0,46,0.00,,,0.00,Wunderground v.1.15,2013-06-13 18:50:00,
2013-06-13 13:55:00,92.7,69.5,29.93,SSE,150,0.0,0.0,47,0.00,,,0.00,Wunderground v.1.15,2013-06-13 18:55:00,
2013-06-13 14:05:00,91.8,69.3,29.92,SSE,150,1.0,3.0,48,0.00,,,0.00,Wunderground v.1.15,2013-06-13 19:05:00,
2013-06-13 14:10:00,92.1,70.2,29.92,SSE,150,1.0,2.0,49,0.00,,,0.00,Wunderground v.1.15,2013-06-13 19:10:00,
2013-06-13 14:20:00,91.8,67.4,29.92,SE,145,2.0,2.0,45,0.00,,,0.00,Wunderground v.1.15,2013-06-13 19:20:00,
2013-06-13 14:25:00,91.6,67.3,29.91,SE,145,1.0,2.0,45,0.00,,,0.00,Wunderground v.1.15,2013-06-13 19:25:00,
2013-06-13 14:35:00,93.2,68.0,29.91,SE,145,2.0,2.0,44,0.00,,,0.00,Wunderground v.1.15,2013-06-13 19:35:00,
2013-06-13 14:40:00,94.0,68.8,29.91,SSE,147,1.0,1.0,44,0.00,,,0.00,Wunderground v.1.15,2013-06-13 19:40:00,
2013-06-13 14:50:00,94.9,69.6,29.90,SE,145,1.0,1.0,44,0.00,,,0.00,Wunderground v.1.15,2013-06-13 19:50:00,
2013-06-13 14:55:00,94.9,69.6,29.90,SE,145,1.0,1.0,44,0.00,,,0.00,Wunderground v.1.15,2013-06-13 19:55:00,
2013-06-13 15:05:00,94.9,68.9,29.90,SSE,151,2.0,6.0,43,0.00,,,0.00,Wunderground v.1.15,2013-06-13 20:05:00,
2013-06-13 15:10:00,95.1,68.4,29.90,SSE,151,3.0,3.0,42,0.00,,,0.00,Wunderground v.1.15,2013-06-13 20:10:00,
2013-06-13 15:20:00,96.1,67.9,29.90,ESE,119,1.0,10.0,40,0.00,,,0.00,Wunderground v.1.15,2013-06-13 20:20:00,
2013-06-13 15:25:00,95.6,68.1,29.90,ESE,114,2.0,10.0,41,0.00,,,0.00,Wunderground v.1.15,2013-06-13 20:25:00,
2013-06-13 15:35:00,94.7,68.0,29.90,ESE,116,2.0,2.0,42,0.00,,,0.00,Wunderground v.1.15,2013-06-13 20:35:00,
2013-06-13 15:40:00,94.7,68.7,29.89,East,89,4.0,10.0,43,0.00,,,0.00,Wunderground v.1.15,2013-06-13 20:40:00,
2013-06-13 15:50:00,94.3,69.0,29.91,SSE,168,4.0,4.0,44,0.00,,,0.00,Wunderground v.1.15,2013-06-13 20:50:00,
2013-06-13 15:55:00,91.0,69.2,29.91,South,184,3.0,5.0,49,0.00,,,0.00,Wunderground v.1.15,2013-06-13 20:55:00,
2013-06-13 16:05:00,85.9,70.4,29.91,South,179,6.0,8.0,60,0.00,,,0.00,Wunderground v.1.15,2013-06-13 21:05:00,
2013-06-13 16:10:00,84.3,70.3,29.91,South,182,5.0,5.0,63,0.00,,,0.00,Wunderground v.1.15,2013-06-13 21:10:00,
2013-06-13 16:20:00,83.2,70.2,29.90,SSW,195,2.0,2.0,65,0.00,,,0.00,Wunderground v.1.15,2013-06-13 21:20:00,
2013-06-13 16:25:00,82.6,69.6,29.90,South,186,2.0,7.0,65,0.00,,,0.00,Wunderground v.1.15,2013-06-13 21:25:00,
2013-06-13 16:35:00,81.2,68.8,29.90,SSW,203,2.0,2.0,66,0.00,,,0.00,Wunderground v.1.15,2013-06-13 21:35:00,
2013-06-13 16:40:00,80.9,68.9,29.90,SSW,203,1.0,1.0,67,0.00,,,0.00,Wunderground v.1.15,2013-06-13 21:40:00,
2013-06-13 16:50:00,80.3,68.3,29.90,SSW,203,0.0,0.0,67,0.00,,,0.00,Wunderground v.1.15,2013-06-13 21:50:00,
2013-06-13 16:55:00,80.1,67.7,29.89,SSW,203,0.0,0.0,66,0.00,,,0.00,Wunderground v.1.15,2013-06-13 21:55:00,
2013-06-13 17:05:00,79.6,66.8,29.89,SSW,203,0.0,0.0,65,0.00,,,0.00,Wunderground v.1.15,2013-06-13 22:05:00,
2013-06-13 17:10:00,79.4,67.5,29.90,SSW,203,0.0,0.0,67,0.00,,,0.00,Wunderground v.1.15,2013-06-13 22:10:00,
2013-06-13 17:20:00,78.8,66.5,29.90,SSW,203,1.0,1.0,66,0.00,,,0.00,Wunderground v.1.15,2013-06-13 22:20:00,
2013-06-13 17:25:00,78.5,66.2,29.90,SSW,203,0.0,1.0,66,0.00,,,0.00,Wunderground v.1.15,2013-06-13 22:25:00,
2013-06-13 17:35:00,78.1,66.2,29.89,SSW,202,1.0,4.0,67,0.00,,,0.00,Wunderground v.1.15,2013-06-13 22:35:00,
2013-06-13 17:40:00,77.9,65.6,29.90,SSW,202,2.0,3.0,66,0.00,,,0.00,Wunderground v.1.15,2013-06-13 22:40:00,
2013-06-13 17:50:00,77.6,65.3,29.89,SSW,202,2.0,2.0,66,0.00,,,0.00,Wunderground v.1.15,2013-06-13 22:50:00,
2013-06-13 17:55:00,77.6,65.3,29.90,SSW,202,1.0,6.0,66,0.00,,,0.00,Wunderground v.1.15,2013-06-13 22:55:00,
2013-06-13 18:05:00,77.4,64.7,29.90,SSW,202,1.0,3.0,65,0.00,,,0.00,Wunderground v.1.15,2013-06-13 23:05:00,
2013-06-13 18:10:00,77.4,63.8,29.90,SSW,202,2.0,5.0,63,0.00,,,0.00,Wunderground v.1.15,2013-06-13 23:10:00,
2013-06-13 18:20:00,77.6,63.5,29.91,ESE,102,3.0,3.0,62,0.00,,,0.00,Wunderground v.1.15,2013-06-13 23:20:00,
2013-06-13 18:25:00,77.7,63.6,29.91,SSE,168,3.0,3.0,62,0.00,,,0.00,Wunderground v.1.15,2013-06-13 23:25:00,
2013-06-13 18:35:00,77.7,64.1,29.90,South,172,1.0,2.0,63,0.00,,,0.00,Wunderground v.1.15,2013-06-13 23:35:00,
2013-06-13 18:40:00,77.6,63.5,29.90,South,174,1.0,1.0,62,0.00,,,0.00,Wunderground v.1.15,2013-06-13 23:40:00,
2013-06-13 18:50:00,77.7,64.1,29.90,South,188,1.0,5.0,63,0.00,,,0.00,Wunderground v.1.15,2013-06-13 23:50:00,
2013-06-13 18:55:00,77.7,64.1,29.90,SSW,200,2.0,5.0,63,0.00,,,0.00,Wunderground v.1.15,2013-06-13 23:55:00,
2013-06-13 19:05:00,77.7,64.5,29.90,SSW,203,3.0,3.0,64,0.00,,,0.00,Wunderground v.1.15,2013-06-14 00:05:00,
2013-06-13 19:10:00,77.7,64.5,29.90,SSW,203,2.0,4.0,64,0.00,,,0.00,Wunderground v.1.15,2013-06-14 00:10:00,
2013-06-13 19:20:00,77.7,65.0,29.90,SSW,205,2.0,4.0,65,0.00,,,0.00,Wunderground v.1.15,2013-06-14 00:20:00,
2013-06-13 19:25:00,77.7,65.0,29.90,SSW,206,4.0,6.0,65,0.00,,,0.00,Wunderground v.1.15,2013-06-14 00:25:00,
2013-06-13 19:35:00,77.7,65.0,29.90,SSW,205,5.0,8.0,65,0.00,,,0.00,Wunderground v.1.15,2013-06-14 00:35:00,
2013-06-13 19:40:00,77.7,65.0,29.90,SSW,200,5.0,5.0,65,0.00,,,0.00,Wunderground v.1.15,2013-06-14 00:40:00,
2013-06-13 19:50:00,77.6,65.3,29.90,SSW,202,2.0,2.0,66,0.00,,,0.00,Wunderground v.1.15,2013-06-14 00:50:00,
2013-06-13 19:55:00,77.4,66.0,29.90,SSW,202,1.0,2.0,68,0.00,,,0.00,Wunderground v.1.15,2013-06-14 00:55:00,
2013-06-13 20:05:00,77.4,65.6,29.90,SSW,202,1.0,1.0,67,0.00,,,0.00,Wunderground v.1.15,2013-06-14 01:05:00,
2013-06-13 20:10:00,77.2,65.8,29.89,SSW,202,0.0,0.0,68,0.00,,,0.00,Wunderground v.1.15,2013-06-14 01:10:00,
2013-06-13 20:20:00,77.0,65.6,29.89,SSW,202,1.0,4.0,68,0.00,,,0.00,Wunderground v.1.15,2013-06-14 01:20:00,
2013-06-13 20:25:00,76.8,65.9,29.89,SSW,202,1.0,4.0,69,0.00,,,0.00,Wunderground v.1.15,2013-06-14 01:25:00,
2013-06-13 20:35:00,76.7,66.2,29.89,SSW,202,1.0,1.0,70,0.00,,,0.00,Wunderground v.1.15,2013-06-14 01:35:00,
2013-06-13 20:40:00,76.5,66.4,29.89,SSW,202,1.0,1.0,71,0.00,,,0.00,Wunderground v.1.15,2013-06-14 01:40:00,
2013-06-13 20:50:00,76.3,66.6,29.89,SSW,202,0.0,1.0,72,0.00,,,0.00,Wunderground v.1.15,2013-06-14 01:50:00,
2013-06-13 20:55:00,76.3,66.6,29.89,SSW,202,1.0,1.0,72,0.00,,,0.00,Wunderground v.1.15,2013-06-14 01:55:00,
2013-06-13 21:05:00,76.1,67.6,29.88,SSW,202,0.0,0.0,75,0.00,,,0.00,Wunderground v.1.15,2013-06-14 02:05:00,
2013-06-13 21:10:00,76.1,68.0,29.88,SSW,202,0.0,0.0,76,0.00,,,0.00,Wunderground v.1.15,2013-06-14 02:10:00,
2013-06-13 21:20:00,76.0,68.3,29.88,SSW,202,0.0,0.0,77,0.00,,,0.00,Wunderground v.1.15,2013-06-14 02:20:00,
2013-06-13 21:25:00,76.0,68.3,29.89,SSW,202,0.0,0.0,77,0.00,,,0.00,Wunderground v.1.15,2013-06-14 02:25:00,
2013-06-13 21:35:00,76.0,68.6,29.89,SSW,202,0.0,0.0,78,0.00,,,0.00,Wunderground v.1.15,2013-06-14 02:35:00,
2013-06-13 21:40:00,76.0,69.0,29.88,SSW,202,1.0,1.0,79,0.00,,,0.00,Wunderground v.1.15,2013-06-14 02:40:00,
2013-06-13 21:50:00,75.8,69.2,29.89,SSW,202,1.0,1.0,80,0.00,,,0.00,Wunderground v.1.15,2013-06-14 02:50:00,
2013-06-13 21:55:00,75.8,69.2,29.89,SSW,202,1.0,1.0,80,0.00,,,0.00,Wunderground v.1.15,2013-06-14 02:55:00,
2013-06-13 22:05:00,75.6,69.4,29.88,SSW,202,1.0,3.0,81,0.00,,,0.00,Wunderground v.1.15,2013-06-14 03:05:00,
2013-06-13 22:10:00,75.6,69.4,29.89,SSW,202,1.0,1.0,81,0.00,,,0.00,Wunderground v.1.15,2013-06-14 03:10:00,
2013-06-13 22:20:00,75.4,69.5,29.89,SSW,202,2.0,6.0,82,0.00,,,0.00,Wunderground v.1.15,2013-06-14 03:20:00,
2013-06-13 22:25:00,75.4,69.5,29.89,SSW,202,2.0,6.0,82,0.00,,,0.00,Wunderground v.1.15,2013-06-14 03:25:00,
2013-06-13 22:35:00,75.4,69.5,29.89,SSW,202,2.0,3.0,82,0.00,,,0.00,Wunderground v.1.15,2013-06-14 03:35:00,
2013-06-13 22:40:00,75.3,69.8,29.89,SSW,202,1.0,4.0,83,0.00,,,0.00,Wunderground v.1.15,2013-06-14 03:40:00,
2013-06-13 22:50:00,75.3,69.8,29.90,SSW,202,1.0,1.0,83,0.00,,,0.00,Wunderground v.1.15,2013-06-14 03:50:00,
2013-06-13 22:55:00,75.1,69.6,29.90,SSW,202,2.0,2.0,83,0.00,,,0.00,Wunderground v.1.15,2013-06-14 03:55:00,
2013-06-13 23:05:00,75.1,69.6,29.90,SSW,202,1.0,1.0,83,0.00,,,0.00,Wunderground v.1.15,2013-06-14 04:05:00,
2013-06-13 23:10:00,75.1,69.6,29.90,SSW,202,1.0,5.0,83,0.00,,,0.00,Wunderground v.1.15,2013-06-14 04:10:00,
2013-06-13 23:15:00,74.9,69.4,29.90,SSW,202,2.0,5.0,83,0.00,,,0.00,Wunderground v.1.15,2013-06-14 04:15:00,
2013-06-13 23:20:00,74.9,69.4,29.90,SSW,202,2.0,2.0,83,0.00,,,0.00,Wunderground v.1.15,2013-06-14 04:20:00,
2013-06-13 23:25:00,74.9,69.4,29.90,SSW,202,1.0,2.0,83,0.00,,,0.00,Wunderground v.1.15,2013-06-14 04:25:00,
2013-06-13 23:30:00,74.7,69.2,29.90,SSW,202,1.0,1.0,83,0.00,,,0.00,Wunderground v.1.15,2013-06-14 04:30:00,
2013-06-13 23:35:00,74.7,69.2,29.90,SSW,202,0.0,1.0,83,0.00,,,0.00,Wunderground v.1.15,2013-06-14 04:35:00,
2013-06-13 23:40:00,74.6,69.1,29.90,SSW,202,0.0,0.0,83,0.00,,,0.00,Wunderground v.1.15,2013-06-14 04:40:00,
2013-06-13 23:45:00,74.6,69.1,29.90,SSW,202,0.0,0.0,83,0.00,,,0.00,Wunderground v.1.15,2013-06-14 04:45:00,
2013-06-13 23:50:00,74.6,69.4,29.90,SSW,202,0.0,0.0,84,0.00,,,0.00,Wunderground v.1.15,2013-06-14 04:50:00,
2013-06-13 23:55:00,74.4,69.2,29.90,SSW,202,0.0,3.0,84,0.00,,,0.00,Wunderground v.1.15,2013-06-14 04:55:00,